Location: Unspecified
(42.2730°N, 83.7130°W)
Time: 13:53:36
(UTC+00:00)

Cosmos 2058 Rocket - Pass Details

Date: 14 December 2025
Orbit: 603 x 633 km, 82.5° (Epoch: 17 January)

Event Time Altitude Azimuth Distance (km) Brightness Sun altitude
Rises 23:23:41 0° 184° (S) 2,911 6.8 -14.3°
Reaches altitude 10° 23:25:54 10° 183° (S) 2,009 6.0 -14.7°
Maximum altitude 23:30:22 82° 98° (E) 645 3.0 -15.5°
Drops below altitude 10° 23:34:52 10° 10° (N) 2,024 5.4 -16.3°
Enters shadow 23:35:54 - 10° (N) 2,440 5.9 -16.5°
